Princeton, MN

1:53 AM CST on November 19, 2019 (GMT -0600)
Princeton Municipal

Weather History for KPNM - September, 2019

Change the Weather History Date:

Monday, September 16, 2019

  Actual Average Record
Temperature  
Mean Temperature 71 °F -  
Max Temperature 87 °F 69 °F 89 °F (2018)
Min Temperature 55 °F 46 °F 32 °F (1999)
Cooling Degree Days 6    
Growing Degree Days 21 (Base 50)    
Moisture  
Dew Point 63 °F    
Average Humidity 73    
Maximum Humidity 100    
Minimum Humidity 43    
Precipitation  
Precipitation 0.00 in - - ()
Sea Level Pressure  
Sea Level Pressure 29.99 in    
Wind  
Wind Speed 4 mph (SSE)    
Max Wind Speed 16 mph    
Max Gust Speed 21 mph    
Visibility 8 miles    
Events Fog    
Averages and records for this station are not official NWS values.
T = Trace of Precipitation, MM = Missing Value Source: NWS Daily Summary

Daily Weather History Graph

Daily Weather History Graph

Search for Another Location

Airport or City:

Astronomy

Sep. 16, 2019 Rise Set
Actual Time 6:53 AM CDT 7:23 PM CDT
Civil Twilight 6:24 AM CDT 7:53 PM CDT
Nautical Twilight 5:48 AM CDT 8:28 PM CDT
Astronomical Twilight 5:12 AM CDT 9:05 PM CDT
Moon 8:53 PM CDT (9/16) 9:05 AM CDT (9/16)
Length of Visible Light 13h 29m
Length of Day
12h 30m
Waning Gibbous, 94% of the Moon is Illuminated
Sep 16
Waning Gibbous
Sep 21
Last Quarter
Sep 28
New
Oct 5
First Quarter
Oct 13
Full

Hourly Weather History & Observations

Time (CDT) Temp. Heat Index Dew Point Humidity Pressure Visibility Wind Dir Wind Speed Gust Speed Precip Events Conditions
12:17 AM 60.8 °F - 60.8 °F 100% 30.00 in 0.8 mi Calm Calm - N/A   Mist
12:35 AM 60.8 °F - 60.8 °F 100% 30.00 in 0.5 mi Calm Calm - N/A Fog Fog
12:36 AM 60.8 °F - 60.8 °F 100% 30.00 in 0.5 mi Calm Calm - N/A Fog Fog
12:55 AM 60.8 °F - 59.0 °F 94% 30.00 in 0.2 mi Calm Calm - N/A Fog Fog
1:15 AM 59.0 °F - 57.2 °F 94% 30.01 in 0.2 mi Calm Calm - N/A Fog Fog
1:38 AM 59.0 °F - 57.2 °F 94% 30.01 in 0.2 mi Calm Calm - N/A Fog Fog
1:56 AM 57.2 °F - 57.2 °F 100% 30.01 in 0.8 mi Calm Calm - N/A   Overcast
2:15 AM 57.2 °F - 57.2 °F 100% 30.02 in 0.2 mi Calm Calm - N/A   Overcast
2:35 AM 59.0 °F - 57.2 °F 94% 30.02 in 2.5 mi Calm Calm - N/A   Scattered Clouds
2:59 AM 55.4 °F - 55.4 °F 100% 30.02 in 0.2 mi Calm Calm - N/A   Overcast
3:17 AM 57.2 °F - 55.4 °F 94% 30.02 in 0.2 mi Calm Calm - N/A   Overcast
3:35 AM 57.2 °F - 55.4 °F 94% 30.02 in 0.8 mi Calm Calm - N/A   Mostly Cloudy
3:55 AM 57.2 °F - 55.4 °F 94% 30.02 in 1.8 mi Calm Calm - N/A   Clear
4:15 AM 57.2 °F - 57.2 °F 100% 30.02 in 5.0 mi Calm Calm - N/A   Clear
4:19 AM 57.2 °F - 57.2 °F 100% 30.02 in 4.0 mi Calm Calm - N/A   Clear
4:38 AM 55.4 °F - 55.4 °F 100% 30.02 in 2.0 mi Calm Calm - N/A   Clear
4:56 AM 57.2 °F - 57.2 °F 100% 30.02 in 4.0 mi Calm Calm - N/A   Clear
5:15 AM 59.0 °F - 57.2 °F 94% 30.02 in 2.5 mi Calm Calm - N/A   Clear
5:35 AM 55.4 °F - 55.4 °F 100% 30.02 in 0.5 mi Calm Calm - N/A   Unknown
5:36 AM 55.4 °F - 55.4 °F 100% 30.02 in 0.2 mi Calm Calm - N/A   Unknown
5:59 AM 57.2 °F - 57.2 °F 100% 30.02 in 0.8 mi Calm Calm - N/A   Unknown
6:17 AM 55.4 °F - 55.4 °F 100% 30.02 in 0.5 mi Calm Calm - N/A   Unknown
6:35 AM 57.2 °F - 57.2 °F 100% 30.02 in 1.2 mi Calm Calm - N/A   Clear
7:15 AM 57.2 °F - 57.2 °F 100% 30.03 in 0.2 mi Calm Calm - N/A Fog Fog
7:38 AM 59.0 °F - 57.2 °F 94% 30.03 in 5.0 mi Calm Calm - N/A   Clear
7:55 AM 62.6 °F - 60.8 °F 94% 30.03 in 10.0 mi Calm Calm - N/A   Clear
8:15 AM 64.4 °F - 62.6 °F 94% 30.03 in 10.0 mi SSE 4.6 mph - N/A   Clear
8:35 AM 64.4 °F - 64.4 °F 100% 30.03 in 10.0 mi SSE 4.6 mph - N/A   Clear
8:36 AM 64.4 °F - 64.4 °F 100% 30.03 in 10.0 mi SSE 5.8 mph - N/A   Clear
8:59 AM 69.8 °F - 62.6 °F 78% 30.03 in 10.0 mi SSE 4.6 mph - N/A   Clear
9:17 AM 71.6 °F - 62.6 °F 73% 30.03 in 10.0 mi SSE 5.8 mph - N/A   Clear
9:35 AM 73.4 °F - 60.8 °F 65% 30.03 in 10.0 mi SSE 9.2 mph - N/A   Clear
9:55 AM 73.4 °F - 60.8 °F 65% 30.02 in 10.0 mi SSE 8.1 mph - N/A   Clear
9:56 AM 73.4 °F - 60.8 °F 65% 30.02 in 10.0 mi SSE 8.1 mph - N/A   Clear
10:15 AM 75.2 °F - 60.8 °F 61% 30.02 in 10.0 mi SSE 10.4 mph - N/A   Clear
10:20 AM 75.2 °F - 60.8 °F 61% 30.02 in 10.0 mi SSE 9.2 mph - N/A   Clear
10:35 AM 78.8 °F - 60.8 °F 54% 30.02 in 10.0 mi South 11.5 mph - N/A   Clear
10:55 AM 78.8 °F - 60.8 °F 54% 30.02 in 10.0 mi SSE 9.2 mph - N/A   Clear
10:56 AM 78.8 °F - 60.8 °F 54% 30.02 in 10.0 mi South 9.2 mph - N/A   Clear
11:15 AM 80.6 °F 81.5 °F 60.8 °F 51% 30.01 in 10.0 mi SSE 9.2 mph - N/A   Clear
11:20 AM 80.6 °F 81.1 °F 59.0 °F 48% 30.01 in 10.0 mi SSE 13.8 mph 17.3 mph N/A   Clear
11:38 AM 82.4 °F 82.9 °F 60.8 °F 48% 30.01 in 10.0 mi SSE 11.5 mph 16.1 mph N/A   Clear
11:56 AM 82.4 °F 82.9 °F 60.8 °F 48% 30.01 in 10.0 mi SSE 8.1 mph - N/A   Clear
12:35 PM 84.2 °F 85.0 °F 62.6 °F 48% 30.00 in 10.0 mi SE 11.5 mph - N/A   Clear
12:36 PM 84.2 °F 84.4 °F 60.8 °F 45% 30.00 in 10.0 mi SSE 11.5 mph - N/A   Clear
12:59 PM 82.4 °F 82.9 °F 60.8 °F 48% 30.00 in 10.0 mi SE 10.4 mph - N/A   Clear
1:17 PM 82.4 °F 82.9 °F 60.8 °F 48% 29.99 in 10.0 mi SE 9.2 mph 16.1 mph N/A   Clear
1:35 PM 84.2 °F 85.0 °F 62.6 °F 48% 29.99 in 10.0 mi SE 8.1 mph - N/A   Clear
1:55 PM 86.0 °F 86.1 °F 60.8 °F 43% 29.98 in 10.0 mi SE 15.0 mph 19.6 mph N/A   Clear
1:56 PM 86.0 °F 86.1 °F 60.8 °F 43% 29.98 in 10.0 mi SSE 13.8 mph 19.6 mph N/A   Clear
2:15 PM 86.0 °F 86.6 °F 62.6 °F 45% 29.98 in 10.0 mi SSE 13.8 mph 19.6 mph N/A   Clear
2:20 PM 84.2 °F 85.0 °F 62.6 °F 48% 29.98 in 10.0 mi SSE 11.5 mph 19.6 mph N/A   Clear
2:38 PM 84.2 °F 85.6 °F 64.4 °F 51% 29.98 in 10.0 mi SE 9.2 mph 17.3 mph N/A   Clear
2:56 PM 87.8 °F 89.4 °F 64.4 °F 46% 29.97 in 10.0 mi SSE 12.7 mph - N/A   Clear
3:15 PM 87.8 °F 89.4 °F 64.4 °F 46% 29.97 in 10.0 mi SE 11.5 mph 19.6 mph N/A   Clear
3:16 PM 87.8 °F 89.4 °F 64.4 °F 46% 29.97 in 10.0 mi SE 11.5 mph 19.6 mph N/A   Clear
3:35 PM 86.0 °F 87.3 °F 64.4 °F 48% 29.97 in 10.0 mi SSE 12.7 mph 20.7 mph N/A   Clear
3:36 PM 86.0 °F 87.3 °F 64.4 °F 48% 29.97 in 10.0 mi SSE 16.1 mph 20.7 mph N/A   Clear
3:59 PM 86.0 °F 87.3 °F 64.4 °F 48% 29.97 in 10.0 mi SSE 12.7 mph 19.6 mph N/A   Clear
4:17 PM 86.0 °F 88.2 °F 66.2 °F 51% 29.96 in 10.0 mi SSE 15.0 mph 18.4 mph N/A   Clear
4:35 PM 86.0 °F 88.2 °F 66.2 °F 51% 29.96 in 10.0 mi SSE 11.5 mph - N/A   Clear
4:36 PM 86.0 °F 88.2 °F 66.2 °F 51% 29.96 in 10.0 mi SSE 12.7 mph 19.6 mph N/A   Clear
4:55 PM 86.0 °F 88.2 °F 66.2 °F 51% 29.96 in 10.0 mi SSE 11.5 mph 17.3 mph N/A   Clear
4:56 PM 86.0 °F 88.2 °F 66.2 °F 51% 29.96 in 10.0 mi SSE 10.4 mph 17.3 mph N/A   Clear
5:15 PM 84.2 °F 87.3 °F 68.0 °F 58% 29.96 in 10.0 mi SSE 8.1 mph - N/A   Clear
5:38 PM 84.2 °F 87.3 °F 68.0 °F 58% 29.96 in 10.0 mi SE 6.9 mph - N/A   Clear
5:56 PM 84.2 °F 87.3 °F 68.0 °F 58% 29.96 in 10.0 mi SE 6.9 mph - N/A   Clear
6:15 PM 82.4 °F 86.3 °F 69.8 °F 66% 29.96 in 10.0 mi SE 6.9 mph - N/A   Clear
6:35 PM 82.4 °F 86.3 °F 69.8 °F 66% 29.96 in 10.0 mi SSE 8.1 mph - N/A   Clear
6:36 PM 82.4 °F 86.3 °F 69.8 °F 66% 29.96 in 10.0 mi SE 6.9 mph - N/A   Clear
6:59 PM 80.6 °F 83.9 °F 69.8 °F 70% 29.96 in 10.0 mi SE 9.2 mph - N/A   Clear
7:17 PM 78.8 °F - 69.8 °F 74% 29.96 in 10.0 mi SE 4.6 mph - N/A   Clear
7:35 PM 78.8 °F - 69.8 °F 74% 29.96 in 10.0 mi SE 6.9 mph - N/A   Clear
7:55 PM 78.8 °F - 69.8 °F 74% 29.96 in 10.0 mi SE 5.8 mph - N/A   Clear
8:15 PM 77.0 °F - 69.8 °F 78% 29.96 in 10.0 mi SE 6.9 mph - N/A   Clear
8:20 PM 77.0 °F - 68.0 °F 74% 29.96 in 10.0 mi SE 8.1 mph - N/A   Clear
8:56 PM 75.2 °F - 68.0 °F 78% 29.96 in 10.0 mi SE 5.8 mph - N/A   Clear
9:15 PM 75.2 °F - 68.0 °F 78% 29.96 in 10.0 mi SE 6.9 mph - N/A   Clear
9:16 PM 75.2 °F - 68.0 °F 78% 29.96 in 10.0 mi SE 5.8 mph - N/A   Clear
9:35 PM 75.2 °F - 66.2 °F 73% 29.96 in 7.0 mi SE 6.9 mph - N/A   Clear
9:59 PM 75.2 °F - 68.0 °F 78% 29.96 in 10.0 mi SE 6.9 mph - N/A   Clear
10:35 PM 75.2 °F - 68.0 °F 78% 29.96 in 10.0 mi SSE 5.8 mph - N/A   Clear
10:36 PM 75.2 °F - 68.0 °F 78% 29.96 in 10.0 mi SE 5.8 mph - N/A   Clear
10:55 PM 75.2 °F - 69.8 °F 83% 29.96 in 10.0 mi SE 6.9 mph - N/A   Clear
11:15 PM 75.2 °F - 69.8 °F 83% 29.97 in 10.0 mi SSE 5.8 mph - N/A   Clear
11:37 PM 73.4 °F - 69.8 °F 88% 29.97 in 10.0 mi SE 4.6 mph - N/A   Clear
11:56 PM 73.4 °F - 69.8 °F 88% 29.96 in 10.0 mi SE 4.6 mph - N/A   Clear